Time,TemperatureF,DewpointF,PressureIn,WindDirection,WindDirectionDegrees,WindSpeedMPH,WindSpeedGustMPH,Humidity,HourlyPrecipIn,Conditions,Clouds,dailyrainin,SoftwareType,DateUTC
2013-06-23 00:03:00,56.3,51.2,29.51,South,180,4.0,9.8,83,0.00,,,0.00,WUHU216HW,2013-06-22 23:03:00,
2013-06-23 00:08:00,56.3,51.2,29.51,West,270,4.0,9.8,83,0.00,,,0.00,WUHU216HW,2013-06-22 23:08:00,
2013-06-23 00:13:00,56.3,51.2,29.51,SSW,203,3.4,8.3,83,0.00,,,0.00,WUHU216HW,2013-06-22 23:13:00,
2013-06-23 00:17:00,56.3,51.5,29.51,SSE,158,4.3,8.3,84,0.00,,,0.00,WUHU216HW,2013-06-22 23:17:00,
2013-06-23 00:22:00,56.3,51.5,29.51,SSW,203,4.7,6.3,84,0.00,,,0.00,WUHU216HW,2013-06-22 23:22:00,
2013-06-23 00:27:00,56.3,51.5,29.51,South,180,2.2,7.8,84,0.00,,,0.00,WUHU216HW,2013-06-22 23:27:00,
2013-06-23 00:33:00,56.3,51.5,29.51,SSW,203,6.9,7.8,84,0.00,,,0.00,WUHU216HW,2013-06-22 23:33:00,
2013-06-23 00:38:00,56.3,51.5,29.50,ESE,113,3.6,8.9,84,0.00,,,0.00,WUHU216HW,2013-06-22 23:38:00,
2013-06-23 00:43:00,56.3,51.5,29.50,South,180,3.6,8.9,84,0.00,,,0.00,WUHU216HW,2013-06-22 23:43:00,
2013-06-23 00:48:00,56.3,51.5,29.50,SW,225,5.1,8.5,84,0.00,,,0.00,WUHU216HW,2013-06-22 23:48:00,
2013-06-23 00:53:00,56.3,51.8,29.50,NNW,338,6.5,7.6,85,0.00,,,0.00,WUHU216HW,2013-06-22 23:53:00,
2013-06-23 00:57:00,56.3,52.2,29.50,ESE,113,1.6,7.6,86,0.00,,,0.00,WUHU216HW,2013-06-22 23:57:00,
2013-06-23 01:02:00,56.2,52.0,29.50,NW,315,4.0,8.9,86,0.00,,,0.00,WUHU216HW,2013-06-23 00:02:00,
2013-06-23 01:07:00,56.2,52.0,29.50,South,180,3.8,8.9,86,0.00,,,0.00,WUHU216HW,2013-06-23 00:07:00,
2013-06-23 01:12:00,56.0,51.9,29.51,SSE,158,3.1,8.7,86,0.00,,,0.00,WUHU216HW,2013-06-23 00:12:00,
2013-06-23 01:17:00,56.0,51.9,29.51,SW,225,2.0,9.6,86,0.00,,,0.00,WUHU216HW,2013-06-23 00:17:00,
2013-06-23 01:22:00,56.0,51.9,29.51,South,180,4.0,9.6,86,0.00,,,0.00,WUHU216HW,2013-06-23 00:22:00,
2013-06-23 01:27:00,56.2,52.0,29.51,South,180,1.8,7.4,86,0.00,,,0.00,WUHU216HW,2013-06-23 00:27:00,
2013-06-23 01:32:00,56.2,51.7,29.51,South,180,4.0,6.3,85,0.00,,,0.00,WUHU216HW,2013-06-23 00:32:00,
2013-06-23 01:37:00,56.2,51.7,29.51,SW,225,2.7,6.3,85,0.00,,,0.00,WUHU216HW,2013-06-23 00:37:00,
2013-06-23 01:42:00,56.2,51.7,29.51,SSW,203,1.8,6.3,85,0.00,,,0.00,WUHU216HW,2013-06-23 00:42:00,
2013-06-23 01:47:00,56.2,51.7,29.51,SSW,203,7.4,7.4,85,0.00,,,0.00,WUHU216HW,2013-06-23 00:47:00,
2013-06-23 01:52:00,56.2,51.7,29.51,SW,225,2.7,7.4,85,0.00,,,0.00,WUHU216HW,2013-06-23 00:52:00,
2013-06-23 01:57:00,56.2,51.7,29.50,NW,315,3.8,7.4,85,0.00,,,0.00,WUHU216HW,2013-06-23 00:57:00,
2013-06-23 02:02:00,56.0,51.5,29.51,SSW,203,2.2,6.0,85,0.00,,,0.00,WUHU216HW,2013-06-23 01:02:00,
2013-06-23 02:07:00,56.0,51.9,29.51,South,180,1.6,8.7,86,0.00,,,0.00,WUHU216HW,2013-06-23 01:07:00,
2013-06-23 02:12:00,56.0,51.9,29.50,South,180,4.0,9.2,86,0.00,,,0.00,WUHU216HW,2013-06-23 01:12:00,
2013-06-23 02:17:00,56.0,51.9,29.50,SW,225,3.1,9.2,86,0.00,,,0.00,WUHU216HW,2013-06-23 01:17:00,
2013-06-23 02:22:00,56.0,51.9,29.50,South,180,5.6,8.5,86,0.00,,,0.00,WUHU216HW,2013-06-23 01:22:00,
2013-06-23 02:27:00,56.0,51.9,29.51,SSE,158,8.5,8.5,86,0.00,,,0.00,WUHU216HW,2013-06-23 01:27:00,
2013-06-23 02:32:00,55.8,51.9,29.51,South,180,8.1,8.5,87,0.00,,,0.00,WUHU216HW,2013-06-23 01:32:00,
2013-06-23 02:37:00,55.8,52.6,29.51,South,180,6.5,8.5,89,0.00,,,0.00,WUHU216HW,2013-06-23 01:37:00,
2013-06-23 02:42:00,55.6,52.4,29.50,South,180,2.9,8.1,89,0.01,,,0.01,WUHU216HW,2013-06-23 01:42:00,
2013-06-23 02:47:00,55.4,52.2,29.50,South,180,3.6,6.5,89,0.01,,,0.01,WUHU216HW,2013-06-23 01:47:00,
2013-06-23 02:52:00,55.4,52.6,29.50,SW,225,0.9,7.6,90,0.01,,,0.01,WUHU216HW,2013-06-23 01:52:00,
2013-06-23 02:57:00,55.3,52.4,29.50,SE,135,3.4,7.6,90,0.01,,,0.01,WUHU216HW,2013-06-23 01:57:00,
2013-06-23 03:02:00,55.1,52.2,29.51,SSW,203,6.9,8.9,90,0.01,,,0.01,WUHU216HW,2013-06-23 02:02:00,
2013-06-23 03:07:00,55.1,52.2,29.50,South,180,3.8,8.9,90,0.01,,,0.01,WUHU216HW,2013-06-23 02:07:00,
2013-06-23 03:12:00,55.1,52.5,29.50,WSW,248,2.9,5.1,91,0.01,,,0.01,WUHU216HW,2013-06-23 02:12:00,
2013-06-23 03:17:00,55.1,52.5,29.51,WSW,248,1.8,6.3,91,0.01,,,0.01,WUHU216HW,2013-06-23 02:17:00,
2013-06-23 03:22:00,55.1,52.5,29.51,SSE,158,3.1,6.3,91,0.01,,,0.01,WUHU216HW,2013-06-23 02:22:00,
2013-06-23 03:27:00,55.1,52.5,29.51,SW,225,1.1,6.3,91,0.01,,,0.01,WUHU216HW,2013-06-23 02:27:00,
2013-06-23 03:32:00,55.1,52.2,29.51,South,180,0.9,8.5,90,0.01,,,0.01,WUHU216HW,2013-06-23 02:32:00,
2013-06-23 03:37:00,55.3,52.4,29.51,SSW,203,3.4,8.5,90,0.01,,,0.01,WUHU216HW,2013-06-23 02:37:00,
2013-06-23 03:42:00,55.3,52.4,29.51,SW,225,0.4,4.5,90,0.00,,,0.01,WUHU216HW,2013-06-23 02:42:00,
2013-06-23 03:47:00,55.3,52.7,29.51,South,180,6.3,6.3,91,0.00,,,0.01,WUHU216HW,2013-06-23 02:47:00,
2013-06-23 03:52:00,55.1,52.5,29.51,South,180,6.9,8.1,91,0.00,,,0.01,WUHU216HW,2013-06-23 02:52:00,
2013-06-23 03:57:00,55.1,52.5,29.51,SW,225,4.3,8.1,91,0.00,,,0.01,WUHU216HW,2013-06-23 02:57:00,
2013-06-23 04:02:00,55.1,52.5,29.51,SSW,203,2.5,6.9,91,0.00,,,0.01,WUHU216HW,2013-06-23 03:02:00,
2013-06-23 04:07:00,55.1,52.5,29.51,WNW,293,2.5,5.4,91,0.00,,,0.01,WUHU216HW,2013-06-23 03:07:00,
2013-06-23 04:12:00,55.1,52.5,29.51,West,270,2.2,9.4,91,0.00,,,0.01,WUHU216HW,2013-06-23 03:12:00,
2013-06-23 04:17:00,55.1,52.5,29.51,SSW,203,4.0,9.4,91,0.00,,,0.01,WUHU216HW,2013-06-23 03:17:00,
2013-06-23 04:22:00,55.1,52.5,29.51,SSE,158,5.4,5.6,91,0.00,,,0.01,WUHU216HW,2013-06-23 03:22:00,
2013-06-23 04:27:00,55.1,52.5,29.52,West,270,4.0,5.6,91,0.00,,,0.01,WUHU216HW,2013-06-23 03:27:00,
2013-06-23 04:32:00,55.1,52.5,29.52,South,180,1.1,5.4,91,0.00,,,0.01,WUHU216HW,2013-06-23 03:32:00,
2013-06-23 04:37:00,55.3,52.4,29.52,WNW,293,1.1,8.7,90,0.00,,,0.01,WUHU216HW,2013-06-23 03:37:00,
2013-06-23 04:42:00,55.3,52.4,29.52,South,180,1.8,8.7,90,0.00,,,0.01,WUHU216HW,2013-06-23 03:42:00,
2013-06-23 04:47:00,55.3,52.4,29.52,NNW,338,1.3,5.8,90,0.00,,,0.01,WUHU216HW,2013-06-23 03:47:00,
2013-06-23 04:52:00,55.3,52.4,29.53,South,180,2.5,4.0,90,0.00,,,0.01,WUHU216HW,2013-06-23 03:52:00,
2013-06-23 04:57:00,55.3,52.4,29.53,NNW,338,1.1,4.0,90,0.00,,,0.01,WUHU216HW,2013-06-23 03:57:00,
2013-06-23 05:01:00,55.3,52.4,29.53,SW,225,1.8,5.4,90,0.00,,,0.01,WUHU216HW,2013-06-23 04:01:00,
2013-06-23 05:06:00,55.3,52.4,29.53,SW,225,1.6,5.4,90,0.00,,,0.01,WUHU216HW,2013-06-23 04:06:00,
2013-06-23 05:11:00,55.3,52.4,29.53,West,270,3.4,5.4,90,0.00,,,0.01,WUHU216HW,2013-06-23 04:11:00,
2013-06-23 05:16:00,55.3,52.4,29.53,SSW,203,4.7,5.4,90,0.00,,,0.01,WUHU216HW,2013-06-23 04:16:00,
2013-06-23 05:21:00,55.4,52.6,29.53,South,180,2.5,4.7,90,0.00,,,0.01,WUHU216HW,2013-06-23 04:21:00,
2013-06-23 05:26:00,55.4,52.6,29.53,WNW,293,0.9,5.4,90,0.00,,,0.01,WUHU216HW,2013-06-23 04:26:00,
2013-06-23 05:31:00,55.4,52.6,29.53,WSW,248,1.8,6.3,90,0.00,,,0.01,WUHU216HW,2013-06-23 04:31:00,
2013-06-23 05:36:00,55.6,52.7,29.54,South,180,1.8,6.3,90,0.00,,,0.01,WUHU216HW,2013-06-23 04:36:00,
2013-06-23 05:41:00,55.8,52.6,29.54,NE,45,0.9,4.7,89,0.00,,,0.01,WUHU216HW,2013-06-23 04:41:00,
2013-06-23 05:46:00,55.8,52.6,29.54,SSW,203,1.3,4.7,89,0.00,,,0.01,WUHU216HW,2013-06-23 04:46:00,
2013-06-23 05:51:00,55.8,52.6,29.54,SW,225,3.1,4.7,89,0.00,,,0.01,WUHU216HW,2013-06-23 04:51:00,
2013-06-23 05:56:00,55.8,52.6,29.55,SW,225,0.2,4.0,89,0.00,,,0.01,WUHU216HW,2013-06-23 04:56:00,
2013-06-23 06:01:00,56.0,52.7,29.55,West,270,2.9,4.0,89,0.00,,,0.01,WUHU216HW,2013-06-23 05:01:00,
2013-06-23 06:06:00,56.0,52.7,29.55,WNW,293,0.4,2.9,89,0.00,,,0.01,WUHU216HW,2013-06-23 05:06:00,
2013-06-23 06:11:00,56.2,52.9,29.55,SSE,158,0.4,2.9,89,0.00,,,0.01,WUHU216HW,2013-06-23 05:11:00,
2013-06-23 06:16:00,56.3,53.1,29.55,West,270,2.5,3.8,89,0.00,,,0.01,WUHU216HW,2013-06-23 05:16:00,
2013-06-23 06:21:00,56.3,52.8,29.55,SSW,203,0.0,3.8,88,0.00,,,0.01,WUHU216HW,2013-06-23 05:21:00,
2013-06-23 06:26:00,56.3,52.5,29.55,SW,225,2.5,3.1,87,0.00,,,0.01,WUHU216HW,2013-06-23 05:26:00,
2013-06-23 06:31:00,56.5,52.7,29.55,SW,225,1.8,3.1,87,0.00,,,0.01,WUHU216HW,2013-06-23 05:31:00,
2013-06-23 06:36:00,56.5,52.7,29.56,WNW,293,0.9,3.1,87,0.00,,,0.01,WUHU216HW,2013-06-23 05:36:00,
2013-06-23 06:41:00,56.7,52.6,29.56,West,270,2.0,4.5,86,0.00,,,0.01,WUHU216HW,2013-06-23 05:41:00,
2013-06-23 06:46:00,56.9,52.8,29.56,South,180,3.8,4.5,86,0.00,,,0.01,WUHU216HW,2013-06-23 05:46:00,
2013-06-23 06:51:00,57.1,52.9,29.56,West,270,0.7,5.4,86,0.00,,,0.01,WUHU216HW,2013-06-23 05:51:00,
2013-06-23 06:56:00,57.2,52.7,29.56,NW,315,1.8,5.8,85,0.00,,,0.01,WUHU216HW,2013-06-23 05:56:00,
2013-06-23 07:01:00,57.4,52.9,29.57,WNW,293,1.6,5.8,85,0.00,,,0.01,WUHU216HW,2013-06-23 06:01:00,
2013-06-23 07:06:00,57.6,53.1,29.57,West,270,3.8,4.3,85,0.00,,,0.01,WUHU216HW,2013-06-23 06:06:00,
2013-06-23 07:11:00,57.6,52.7,29.57,SW,225,1.1,4.3,84,0.00,,,0.01,WUHU216HW,2013-06-23 06:11:00,
2013-06-23 07:16:00,57.6,52.7,29.57,SSW,203,1.8,4.3,84,0.00,,,0.01,WUHU216HW,2013-06-23 06:16:00,
2013-06-23 07:21:00,57.6,52.7,29.57,SSE,158,3.6,3.6,84,0.00,,,0.01,WUHU216HW,2013-06-23 06:21:00,
2013-06-23 07:26:00,57.8,52.7,29.57,NW,315,0.7,3.6,83,0.00,,,0.01,WUHU216HW,2013-06-23 06:26:00,
2013-06-23 07:31:00,58.1,53.0,29.57,WSW,248,2.7,4.0,83,0.00,,,0.01,WUHU216HW,2013-06-23 06:31:00,
2013-06-23 07:36:00,58.7,53.6,29.58,West,270,2.2,4.0,83,0.00,,,0.01,WUHU216HW,2013-06-23 06:36:00,
2013-06-23 07:41:00,59.2,53.5,29.58,WNW,293,1.6,2.9,81,0.00,,,0.01,WUHU216HW,2013-06-23 06:41:00,
2013-06-23 07:46:00,59.2,53.1,29.58,SW,225,2.9,3.1,80,0.00,,,0.01,WUHU216HW,2013-06-23 06:46:00,
2013-06-23 07:51:00,59.0,52.9,29.58,West,270,1.1,3.6,80,0.00,,,0.01,WUHU216HW,2013-06-23 06:51:00,
2013-06-23 07:56:00,59.0,52.9,29.59,WNW,293,2.0,3.6,80,0.00,,,0.01,WUHU216HW,2013-06-23 06:56:00,
2013-06-23 08:01:00,59.0,52.9,29.59,WNW,293,1.1,4.5,80,0.00,,,0.01,WUHU216HW,2013-06-23 07:01:00,
2013-06-23 08:06:00,59.4,53.7,29.59,WNW,293,1.3,4.5,81,0.00,,,0.01,WUHU216HW,2013-06-23 07:06:00,
2013-06-23 08:11:00,59.8,53.3,29.59,SW,225,5.1,5.1,79,0.00,,,0.01,WUHU216HW,2013-06-23 07:11:00,
2013-06-23 08:16:00,59.8,53.3,29.59,ESE,113,1.8,7.6,79,0.00,,,0.01,WUHU216HW,2013-06-23 07:16:00,
2013-06-23 08:21:00,59.9,53.5,29.59,SW,225,1.1,7.6,79,0.00,,,0.01,WUHU216HW,2013-06-23 07:21:00,
2013-06-23 08:26:00,60.3,53.8,29.59,SW,225,1.3,7.6,79,0.00,,,0.01,WUHU216HW,2013-06-23 07:26:00,
2013-06-23 08:31:00,60.8,54.0,29.59,NW,315,2.2,7.8,78,0.00,,,0.01,WUHU216HW,2013-06-23 07:31:00,
2013-06-23 08:36:00,61.2,54.0,29.59,West,270,3.4,7.8,77,0.00,,,0.01,WUHU216HW,2013-06-23 07:36:00,
2013-06-23 08:41:00,61.9,53.9,29.59,East,90,2.2,6.9,75,0.00,,,0.01,WUHU216HW,2013-06-23 07:41:00,
2013-06-23 08:46:00,61.9,53.9,29.60,SSE,158,6.9,6.9,75,0.00,,,0.01,WUHU216HW,2013-06-23 07:46:00,
2013-06-23 08:51:00,61.6,53.9,29.60,West,270,1.8,6.9,76,0.00,,,0.01,WUHU216HW,2013-06-23 07:51:00,
2013-06-23 08:56:00,61.6,53.2,29.60,SW,225,2.7,6.9,74,0.00,,,0.01,WUHU216HW,2013-06-23 07:56:00,
2013-06-23 09:01:00,61.4,53.4,29.60,SW,225,3.6,5.6,75,0.00,,,0.01,WUHU216HW,2013-06-23 08:01:00,
2013-06-23 09:06:00,61.4,53.0,29.60,SW,225,1.1,7.6,74,0.00,,,0.01,WUHU216HW,2013-06-23 08:06:00,
2013-06-23 09:11:00,61.0,52.8,29.60,WNW,293,4.0,7.6,74,0.00,,,0.01,WUHU216HW,2013-06-23 08:11:00,
2013-06-23 09:16:00,60.8,53.3,29.60,NW,315,2.0,5.4,76,0.00,,,0.01,WUHU216HW,2013-06-23 08:16:00,
2013-06-23 09:21:00,60.8,52.6,29.60,WSW,248,1.8,5.4,74,0.00,,,0.01,WUHU216HW,2013-06-23 08:21:00,
2013-06-23 09:26:00,60.8,52.6,29.60,WSW,248,1.6,7.6,74,0.00,,,0.01,WUHU216HW,2013-06-23 08:26:00,
2013-06-23 09:31:00,60.8,52.6,29.60,WNW,293,2.5,7.6,74,0.00,,,0.01,WUHU216HW,2013-06-23 08:31:00,
2013-06-23 09:36:00,60.8,52.6,29.61,West,270,1.3,5.4,74,0.00,,,0.01,WUHU216HW,2013-06-23 08:36:00,
2013-06-23 09:41:00,61.0,53.1,29.61,ESE,113,1.8,3.1,75,0.00,,,0.01,WUHU216HW,2013-06-23 08:41:00,
2013-06-23 09:46:00,61.0,52.4,29.61,SW,225,0.9,4.5,73,0.00,,,0.01,WUHU216HW,2013-06-23 08:46:00,
2013-06-23 09:51:00,61.4,53.0,29.61,WSW,248,0.7,4.5,74,0.00,,,0.01,WUHU216HW,2013-06-23 08:51:00,
2013-06-23 09:56:00,61.6,52.8,29.61,SW,225,2.0,6.3,73,0.00,,,0.01,WUHU216HW,2013-06-23 08:56:00,
2013-06-23 10:01:00,61.7,52.7,29.61,WSW,248,2.5,6.3,72,0.00,,,0.01,WUHU216HW,2013-06-23 09:01:00,
2013-06-23 10:06:00,61.6,51.8,29.61,SW,225,2.9,5.4,70,0.00,,,0.01,WUHU216HW,2013-06-23 09:06:00,
2013-06-23 10:11:00,61.4,51.6,29.62,West,270,2.9,5.4,70,0.00,,,0.01,WUHU216HW,2013-06-23 09:11:00,
2013-06-23 10:16:00,61.0,50.9,29.62,South,180,2.0,6.3,69,0.00,,,0.01,WUHU216HW,2013-06-23 09:16:00,
2013-06-23 10:21:00,60.8,51.1,29.62,WSW,248,0.4,6.3,70,0.00,,,0.01,WUHU216HW,2013-06-23 09:21:00,
2013-06-23 10:26:00,60.8,51.5,29.62,SW,225,1.3,3.6,71,0.00,,,0.01,WUHU216HW,2013-06-23 09:26:00,
2013-06-23 10:31:00,61.0,51.7,29.62,North,0,1.1,2.7,71,0.00,,,0.01,WUHU216HW,2013-06-23 09:31:00,
2013-06-23 10:36:00,61.0,51.7,29.63,SSW,203,0.7,3.6,71,0.00,,,0.01,WUHU216HW,2013-06-23 09:36:00,
2013-06-23 10:41:00,60.8,51.5,29.63,SW,225,1.3,3.6,71,0.00,,,0.01,WUHU216HW,2013-06-23 09:41:00,
2013-06-23 10:46:00,60.8,51.5,29.63,SW,225,4.3,4.3,71,0.00,,,0.01,WUHU216HW,2013-06-23 09:46:00,
2013-06-23 10:51:00,60.7,50.9,29.63,SW,225,1.8,4.3,70,0.00,,,0.01,WUHU216HW,2013-06-23 09:51:00,
2013-06-23 10:56:00,60.7,50.9,29.63,SW,225,1.8,4.3,70,0.00,,,0.01,WUHU216HW,2013-06-23 09:56:00,
2013-06-23 11:01:00,60.7,50.9,29.63,SW,225,1.8,1.8,70,0.00,,,0.01,WUHU216HW,2013-06-23 10:01:00,
2013-06-23 11:06:00,60.8,50.3,29.63,West,270,1.8,4.5,68,0.00,,,0.01,WUHU216HW,2013-06-23 10:06:00,
2013-06-23 11:11:00,61.0,50.9,29.63,WNW,293,2.2,4.5,69,0.00,,,0.01,WUHU216HW,2013-06-23 10:11:00,
2013-06-23 11:16:00,60.8,50.7,29.63,SSW,203,1.3,6.5,69,0.00,,,0.01,WUHU216HW,2013-06-23 10:16:00,
2013-06-23 11:21:00,60.8,51.1,29.63,West,270,1.8,6.5,70,0.00,,,0.01,WUHU216HW,2013-06-23 10:21:00,
2013-06-23 11:26:00,61.2,51.0,29.64,West,270,2.0,6.3,69,0.00,,,0.01,WUHU216HW,2013-06-23 10:26:00,
2013-06-23 11:31:00,61.7,51.9,29.63,NNW,338,2.0,5.1,70,0.00,,,0.01,WUHU216HW,2013-06-23 10:31:00,
2013-06-23 11:36:00,62.6,51.9,29.63,SW,225,3.8,5.4,68,0.00,,,0.01,WUHU216HW,2013-06-23 10:36:00,
2013-06-23 11:41:00,62.6,51.9,29.63,SSE,158,2.7,6.3,68,0.00,,,0.01,WUHU216HW,2013-06-23 10:41:00,
2013-06-23 11:46:00,62.6,51.9,29.64,NNW,338,1.8,6.3,68,0.00,,,0.01,WUHU216HW,2013-06-23 10:46:00,
2013-06-23 11:51:00,62.1,52.3,29.64,NW,315,0.7,4.3,70,0.00,,,0.01,WUHU216HW,2013-06-23 10:51:00,
2013-06-23 11:56:00,61.9,52.1,29.64,West,270,1.6,4.0,70,0.00,,,0.01,WUHU216HW,2013-06-23 10:56:00,
2013-06-23 12:01:00,62.3,52.4,29.64,West,270,2.5,4.9,70,0.00,,,0.01,WUHU216HW,2013-06-23 11:01:00,
2013-06-23 12:06:00,62.6,52.3,29.64,NNW,338,1.8,5.1,69,0.00,,,0.01,WUHU216HW,2013-06-23 11:06:00,
2013-06-23 12:11:00,62.6,51.9,29.64,WSW,248,2.7,6.3,68,0.00,,,0.01,WUHU216HW,2013-06-23 11:11:00,
2013-06-23 12:16:00,62.6,51.9,29.64,West,270,1.1,6.3,68,0.00,,,0.01,WUHU216HW,2013-06-23 11:16:00,
2013-06-23 12:21:00,62.6,51.5,29.65,WSW,248,4.0,4.7,67,0.00,,,0.01,WUHU216HW,2013-06-23 11:21:00,
2013-06-23 12:26:00,63.0,51.0,29.65,WSW,248,3.4,7.2,65,0.00,,,0.01,WUHU216HW,2013-06-23 11:26:00,
2013-06-23 12:31:00,63.0,51.0,29.65,SW,225,2.5,7.2,65,0.00,,,0.01,WUHU216HW,2013-06-23 11:31:00,
2013-06-23 12:36:00,62.8,50.9,29.65,West,270,2.5,5.4,65,0.00,,,0.01,WUHU216HW,2013-06-23 11:36:00,
2013-06-23 12:41:00,62.8,51.3,29.65,West,270,2.5,5.4,66,0.00,,,0.01,WUHU216HW,2013-06-23 11:41:00,
2013-06-23 12:46:00,63.0,51.4,29.65,West,270,0.7,4.7,66,0.00,,,0.01,WUHU216HW,2013-06-23 11:46:00,
2013-06-23 12:51:00,62.8,50.9,29.66,WSW,248,3.1,6.0,65,0.00,,,0.01,WUHU216HW,2013-06-23 11:51:00,
2013-06-23 12:56:00,62.6,51.5,29.66,WSW,248,3.8,6.0,67,0.00,,,0.01,WUHU216HW,2013-06-23 11:56:00,
2013-06-23 13:01:00,63.0,51.4,29.66,WSW,248,4.0,5.4,66,0.00,,,0.01,WUHU216HW,2013-06-23 12:01:00,
2013-06-23 13:06:00,62.6,51.1,29.66,West,270,2.5,5.4,66,0.00,,,0.01,WUHU216HW,2013-06-23 12:06:00,
2013-06-23 13:11:00,62.5,51.3,29.66,West,270,2.7,4.7,67,0.00,,,0.01,WUHU216HW,2013-06-23 12:11:00,
2013-06-23 13:16:00,62.6,51.9,29.66,NNW,338,2.2,3.4,68,0.00,,,0.01,WUHU216HW,2013-06-23 12:16:00,
2013-06-23 13:21:00,62.5,51.0,29.67,West,270,5.4,5.4,66,0.00,,,0.01,WUHU216HW,2013-06-23 12:21:00,
2013-06-23 13:26:00,62.1,51.0,29.67,West,270,2.2,5.4,67,0.00,,,0.01,WUHU216HW,2013-06-23 12:26:00,
2013-06-23 13:31:00,62.1,51.4,29.67,NW,315,4.0,4.9,68,0.00,,,0.01,WUHU216HW,2013-06-23 12:31:00,
2013-06-23 13:36:00,62.6,51.9,29.67,WSW,248,3.4,5.1,68,0.00,,,0.01,WUHU216HW,2013-06-23 12:36:00,
2013-06-23 13:41:00,62.5,51.3,29.67,WSW,248,1.1,5.1,67,0.00,,,0.01,WUHU216HW,2013-06-23 12:41:00,
2013-06-23 13:46:00,62.3,51.6,29.67,West,270,5.4,5.4,68,0.00,,,0.01,WUHU216HW,2013-06-23 12:46:00,
2013-06-23 13:51:00,62.5,51.3,29.68,WSW,248,4.5,5.4,67,0.00,,,0.01,WUHU216HW,2013-06-23 12:51:00,
2013-06-23 13:56:00,62.5,51.8,29.68,NNW,338,2.9,5.4,68,0.00,,,0.01,WUHU216HW,2013-06-23 12:56:00,
2013-06-23 14:01:00,62.5,51.8,29.68,NW,315,1.1,4.9,68,0.00,,,0.01,WUHU216HW,2013-06-23 13:01:00,
2013-06-23 14:06:00,62.3,51.2,29.68,West,270,3.4,4.7,67,0.00,,,0.01,WUHU216HW,2013-06-23 13:06:00,
2013-06-23 14:11:00,62.3,51.2,29.68,West,270,1.3,7.6,67,0.00,,,0.01,WUHU216HW,2013-06-23 13:11:00,
2013-06-23 14:16:00,62.5,51.3,29.68,WSW,248,2.7,7.6,67,0.00,,,0.01,WUHU216HW,2013-06-23 13:16:00,
2013-06-23 14:21:00,62.3,50.8,29.69,WSW,248,2.7,4.7,66,0.00,,,0.01,WUHU216HW,2013-06-23 13:21:00,
2013-06-23 14:26:00,62.3,50.3,29.69,NW,315,1.8,6.3,65,0.00,,,0.01,WUHU216HW,2013-06-23 13:26:00,
2013-06-23 14:31:00,62.3,51.2,29.69,WSW,248,2.0,6.3,67,0.00,,,0.01,WUHU216HW,2013-06-23 13:31:00,
2013-06-23 14:36:00,62.3,51.2,29.70,West,270,1.1,4.7,67,0.00,,,0.01,WUHU216HW,2013-06-23 13:36:00,
2013-06-23 14:41:00,62.3,51.2,29.70,WNW,293,2.7,5.6,67,0.00,,,0.01,WUHU216HW,2013-06-23 13:41:00,
2013-06-23 14:46:00,62.1,50.6,29.70,WSW,248,4.7,5.8,66,0.00,,,0.01,WUHU216HW,2013-06-23 13:46:00,
2013-06-23 14:51:00,62.1,51.0,29.70,WNW,293,1.3,5.8,67,0.00,,,0.01,WUHU216HW,2013-06-23 13:51:00,
2013-06-23 14:56:00,62.3,51.6,29.70,SSW,203,2.9,4.7,68,0.00,,,0.01,WUHU216HW,2013-06-23 13:56:00,
2013-06-23 15:01:00,62.3,51.2,29.70,WNW,293,2.9,6.0,67,0.00,,,0.01,WUHU216HW,2013-06-23 14:01:00,
2013-06-23 15:06:00,62.5,51.3,29.71,WSW,248,3.1,6.0,67,0.00,,,0.01,WUHU216HW,2013-06-23 14:06:00,
2013-06-23 15:11:00,62.6,51.5,29.70,West,270,2.5,5.8,67,0.00,,,0.01,WUHU216HW,2013-06-23 14:11:00,
2013-06-23 15:16:00,63.0,51.8,29.70,West,270,2.5,5.8,67,0.00,,,0.01,WUHU216HW,2013-06-23 14:16:00,
2013-06-23 15:21:00,62.6,51.1,29.71,West,270,2.7,5.4,66,0.00,,,0.01,WUHU216HW,2013-06-23 14:21:00,
2013-06-23 15:26:00,62.6,51.5,29.70,West,270,1.8,5.4,67,0.00,,,0.01,WUHU216HW,2013-06-23 14:26:00,
2013-06-23 15:32:00,62.3,50.8,29.71,SW,225,3.4,5.6,66,0.00,,,0.01,WUHU216HW,2013-06-23 14:32:00,
2013-06-23 15:37:00,62.1,51.0,29.71,West,270,0.7,6.7,67,0.00,,,0.01,WUHU216HW,2013-06-23 14:37:00,
2013-06-23 15:42:00,62.3,51.2,29.71,West,270,2.5,6.7,67,0.00,,,0.01,WUHU216HW,2013-06-23 14:42:00,
2013-06-23 15:47:00,62.5,51.0,29.71,NNW,338,3.4,5.4,66,0.00,,,0.01,WUHU216HW,2013-06-23 14:47:00,
2013-06-23 15:52:00,62.5,51.0,29.71,WNW,293,4.5,6.5,66,0.00,,,0.01,WUHU216HW,2013-06-23 14:52:00,
2013-06-23 15:57:00,62.6,51.5,29.71,West,270,3.1,6.5,67,0.00,,,0.01,WUHU216HW,2013-06-23 14:57:00,
2013-06-23 16:02:00,63.0,51.8,29.71,North,0,1.8,6.3,67,0.00,,,0.01,WUHU216HW,2013-06-23 15:02:00,
2013-06-23 16:07:00,63.0,51.4,29.71,West,270,3.4,6.5,66,0.00,,,0.01,WUHU216HW,2013-06-23 15:07:00,
2013-06-23 16:12:00,62.8,51.3,29.71,West,270,4.0,6.5,66,0.00,,,0.01,WUHU216HW,2013-06-23 15:12:00,
2013-06-23 16:17:00,62.5,51.3,29.72,WNW,293,2.5,7.6,67,0.00,,,0.01,WUHU216HW,2013-06-23 15:17:00,
2013-06-23 16:22:00,62.5,51.3,29.72,NW,315,5.1,7.6,67,0.00,,,0.01,WUHU216HW,2013-06-23 15:22:00,
2013-06-23 16:27:00,62.3,51.6,29.72,WNW,293,4.9,5.1,68,0.00,,,0.01,WUHU216HW,2013-06-23 15:27:00,
2013-06-23 16:32:00,61.9,51.7,29.72,WNW,293,6.3,6.9,69,0.00,,,0.01,WUHU216HW,2013-06-23 15:32:00,
2013-06-23 16:37:00,62.3,52.0,29.72,West,270,1.8,6.9,69,0.00,,,0.01,WUHU216HW,2013-06-23 15:37:00,
2013-06-23 16:42:00,62.5,51.8,29.72,West,270,1.6,5.4,68,0.00,,,0.01,WUHU216HW,2013-06-23 15:42:00,
2013-06-23 16:47:00,63.7,52.1,29.72,SSW,203,1.8,6.7,66,0.00,,,0.01,WUHU216HW,2013-06-23 15:47:00,
2013-06-23 16:52:00,63.9,51.8,29.72,WSW,248,3.8,6.7,65,0.00,,,0.01,WUHU216HW,2013-06-23 15:52:00,
2013-06-23 16:58:00,63.7,51.3,29.72,WNW,293,3.4,6.3,64,0.00,,,0.01,WUHU216HW,2013-06-23 15:58:00,
2013-06-23 17:03:00,63.5,51.9,29.72,WSW,248,1.8,6.3,66,0.00,,,0.01,WUHU216HW,2013-06-23 16:03:00,
2013-06-23 17:08:00,63.7,51.7,29.73,West,270,3.1,6.0,65,0.00,,,0.01,WUHU216HW,2013-06-23 16:08:00,
2013-06-23 17:13:00,63.7,52.1,29.73,ESE,113,3.4,6.0,66,0.00,,,0.01,WUHU216HW,2013-06-23 16:13:00,
2013-06-23 17:18:00,63.4,52.2,29.73,WSW,248,2.5,6.3,67,0.00,,,0.01,WUHU216HW,2013-06-23 16:18:00,
2013-06-23 17:23:00,63.2,52.0,29.73,WNW,293,2.5,6.3,67,0.00,,,0.01,WUHU216HW,2013-06-23 16:23:00,
2013-06-23 17:28:00,63.2,52.0,29.73,WSW,248,2.5,6.5,67,0.00,,,0.01,WUHU216HW,2013-06-23 16:28:00,
2013-06-23 17:33:00,63.4,51.8,29.73,WSW,248,6.9,6.9,66,0.00,,,0.01,WUHU216HW,2013-06-23 16:33:00,
2013-06-23 17:38:00,63.0,51.4,29.73,WNW,293,1.8,6.9,66,0.00,,,0.01,WUHU216HW,2013-06-23 16:38:00,
2013-06-23 17:43:00,63.0,51.8,29.73,West,270,1.8,5.1,67,0.00,,,0.01,WUHU216HW,2013-06-23 16:43:00,
2013-06-23 17:48:00,62.8,51.7,29.73,WSW,248,2.5,4.7,67,0.00,,,0.01,WUHU216HW,2013-06-23 16:48:00,
2013-06-23 17:53:00,63.0,51.4,29.74,WNW,293,2.5,4.0,66,0.00,,,0.01,WUHU216HW,2013-06-23 16:53:00,
2013-06-23 17:57:00,63.0,51.4,29.74,NNW,338,2.5,4.0,66,0.00,,,0.01,WUHU216HW,2013-06-23 16:57:00,
2013-06-23 18:02:00,62.6,51.5,29.74,NNW,338,1.3,4.0,67,0.00,,,0.01,WUHU216HW,2013-06-23 17:02:00,
2013-06-23 18:07:00,62.6,52.3,29.74,SSW,203,7.2,7.2,69,0.00,,,0.01,WUHU216HW,2013-06-23 17:07:00,
2013-06-23 18:12:00,62.6,52.3,29.74,West,270,1.8,7.2,69,0.00,,,0.01,WUHU216HW,2013-06-23 17:12:00,
2013-06-23 18:17:00,62.3,52.0,29.74,West,270,3.8,4.3,69,0.00,,,0.01,WUHU216HW,2013-06-23 17:17:00,
2013-06-23 18:22:00,62.3,52.0,29.75,WSW,248,5.4,5.4,69,0.00,,,0.01,WUHU216HW,2013-06-23 17:22:00,
2013-06-23 18:27:00,62.3,52.0,29.75,WSW,248,2.7,5.4,69,0.00,,,0.01,WUHU216HW,2013-06-23 17:27:00,
2013-06-23 18:32:00,61.9,51.3,29.75,WSW,248,3.4,6.3,68,0.00,,,0.01,WUHU216HW,2013-06-23 17:32:00,
2013-06-23 18:37:00,61.6,51.4,29.75,West,270,1.8,6.9,69,0.00,,,0.01,WUHU216HW,2013-06-23 17:37:00,
2013-06-23 18:42:00,61.2,51.0,29.75,SE,135,2.2,7.6,69,0.00,,,0.01,WUHU216HW,2013-06-23 17:42:00,
2013-06-23 18:47:00,61.2,51.0,29.75,SW,225,1.1,7.6,69,0.00,,,0.01,WUHU216HW,2013-06-23 17:47:00,
2013-06-23 18:52:00,61.0,50.9,29.75,SW,225,1.6,7.2,69,0.00,,,0.01,WUHU216HW,2013-06-23 17:52:00,
2013-06-23 18:57:00,61.2,51.0,29.75,West,270,1.3,7.2,69,0.00,,,0.01,WUHU216HW,2013-06-23 17:57:00,
2013-06-23 19:02:00,61.2,51.0,29.75,West,270,2.0,4.7,69,0.00,,,0.01,WUHU216HW,2013-06-23 18:02:00,
2013-06-23 19:07:00,61.2,51.5,29.75,West,270,1.6,4.0,70,0.00,,,0.01,WUHU216HW,2013-06-23 18:07:00,
2013-06-23 19:12:00,61.4,51.2,29.75,West,270,1.6,4.0,69,0.00,,,0.01,WUHU216HW,2013-06-23 18:12:00,
2013-06-23 19:17:00,61.6,51.4,29.76,WSW,248,2.2,3.4,69,0.00,,,0.01,WUHU216HW,2013-06-23 18:17:00,
2013-06-23 19:22:00,61.6,51.4,29.76,WNW,293,1.6,3.4,69,0.00,,,0.01,WUHU216HW,2013-06-23 18:22:00,
2013-06-23 19:27:00,61.7,51.5,29.76,West,270,1.8,4.0,69,0.00,,,0.01,WUHU216HW,2013-06-23 18:27:00,
2013-06-23 19:32:00,61.7,51.5,29.76,SSW,203,2.2,8.5,69,0.00,,,0.01,WUHU216HW,2013-06-23 18:32:00,
2013-06-23 19:37:00,61.6,51.4,29.76,WNW,293,5.1,8.5,69,0.00,,,0.01,WUHU216HW,2013-06-23 18:37:00,
2013-06-23 19:42:00,61.4,51.2,29.76,WSW,248,1.6,6.9,69,0.00,,,0.01,WUHU216HW,2013-06-23 18:42:00,
2013-06-23 19:47:00,61.0,50.9,29.78,WNW,293,2.9,5.1,69,0.00,,,0.01,WUHU216HW,2013-06-23 18:47:00,
2013-06-23 19:52:00,59.6,52.4,29.78,West,270,3.4,7.2,77,0.00,,,0.01,WUHU216HW,2013-06-23 18:52:00,
2013-06-23 19:57:00,57.8,52.3,29.79,West,270,1.3,7.2,82,0.00,,,0.01,WUHU216HW,2013-06-23 18:57:00,
2013-06-23 20:02:00,56.5,51.7,29.79,WSW,248,1.8,5.1,84,0.00,,,0.01,WUHU216HW,2013-06-23 19:02:00,
2013-06-23 20:07:00,56.0,51.5,29.79,West,270,1.8,4.5,85,0.00,,,0.01,WUHU216HW,2013-06-23 19:07:00,
2013-06-23 20:12:00,55.8,51.7,29.80,WSW,248,0.4,2.9,86,0.00,,,0.01,WUHU216HW,2013-06-23 19:12:00,
2013-06-23 20:17:00,55.8,51.7,29.79,WSW,248,0.2,2.0,86,0.00,,,0.01,WUHU216HW,2013-06-23 19:17:00,
2013-06-23 20:22:00,55.8,51.7,29.80,WSW,248,0.9,2.0,86,0.00,,,0.01,WUHU216HW,2013-06-23 19:22:00,
2013-06-23 20:27:00,55.8,51.9,29.80,West,270,0.4,2.5,87,0.00,,,0.01,WUHU216HW,2013-06-23 19:27:00,
2013-06-23 20:32:00,55.8,51.7,29.80,WNW,293,0.7,3.1,86,0.00,,,0.01,WUHU216HW,2013-06-23 19:32:00,
2013-06-23 20:37:00,55.8,51.7,29.81,WNW,293,1.1,3.1,86,0.00,,,0.01,WUHU216HW,2013-06-23 19:37:00,
2013-06-23 20:42:00,55.6,51.5,29.81,WSW,248,0.9,2.0,86,0.00,,,0.01,WUHU216HW,2013-06-23 19:42:00,
2013-06-23 20:47:00,55.6,51.5,29.81,West,270,0.9,1.6,86,0.00,,,0.01,WUHU216HW,2013-06-23 19:47:00,
2013-06-23 20:52:00,55.6,51.5,29.81,WSW,248,0.7,1.6,86,0.00,,,0.01,WUHU216HW,2013-06-23 19:52:00,
2013-06-23 20:57:00,55.6,51.8,29.81,West,270,0.4,1.6,87,0.00,,,0.01,WUHU216HW,2013-06-23 19:57:00,
2013-06-23 21:02:00,55.8,51.9,29.81,NNW,338,0.2,1.6,87,0.00,,,0.01,WUHU216HW,2013-06-23 20:02:00,
2013-06-23 21:07:00,55.6,51.5,29.81,West,270,1.6,2.5,86,0.00,,,0.01,WUHU216HW,2013-06-23 20:07:00,
2013-06-23 21:12:00,55.4,51.6,29.82,West,270,1.1,2.5,87,0.00,,,0.01,WUHU216HW,2013-06-23 20:12:00,
2013-06-23 21:17:00,55.3,51.1,29.82,WNW,293,1.8,2.2,86,0.00,,,0.01,WUHU216HW,2013-06-23 20:17:00,
2013-06-23 21:22:00,55.1,51.2,29.82,West,270,0.9,1.8,87,0.00,,,0.01,WUHU216HW,2013-06-23 20:22:00,
2013-06-23 21:27:00,54.9,51.0,29.83,NNW,338,0.9,3.1,87,0.00,,,0.01,WUHU216HW,2013-06-23 20:27:00,
2013-06-23 21:32:00,54.7,51.2,29.83,West,270,0.4,3.1,88,0.00,,,0.01,WUHU216HW,2013-06-23 20:32:00,
2013-06-23 21:37:00,54.7,51.2,29.83,SSW,203,0.7,1.8,88,0.00,,,0.01,WUHU216HW,2013-06-23 20:37:00,
2013-06-23 21:42:00,54.7,51.2,29.83,WNW,293,1.1,3.8,88,0.00,,,0.01,WUHU216HW,2013-06-23 20:42:00,
2013-06-23 21:47:00,54.7,51.2,29.83,WSW,248,0.4,3.8,88,0.00,,,0.01,WUHU216HW,2013-06-23 20:47:00,
2013-06-23 21:52:00,54.7,50.9,29.83,West,270,0.9,2.5,87,0.00,,,0.01,WUHU216HW,2013-06-23 20:52:00,
2013-06-23 21:57:00,54.7,50.9,29.83,West,270,1.3,2.2,87,0.00,,,0.01,WUHU216HW,2013-06-23 20:57:00,
2013-06-23 22:02:00,54.7,50.9,29.84,West,270,0.2,2.2,87,0.00,,,0.01,WUHU216HW,2013-06-23 21:02:00,
2013-06-23 22:07:00,54.5,50.4,29.84,West,270,1.1,1.8,86,0.00,,,0.01,WUHU216HW,2013-06-23 21:07:00,
2013-06-23 22:12:00,54.5,50.4,29.84,WNW,293,1.1,1.8,86,0.00,,,0.01,WUHU216HW,2013-06-23 21:12:00,
2013-06-23 22:17:00,54.4,50.2,29.84,NW,315,1.1,1.8,86,0.00,,,0.01,WUHU216HW,2013-06-23 21:17:00,
2013-06-23 22:22:00,54.4,50.2,29.84,West,270,0.9,1.8,86,0.00,,,0.01,WUHU216HW,2013-06-23 21:22:00,
2013-06-23 22:27:00,54.4,50.0,29.85,WNW,293,0.9,6.9,85,0.00,,,0.01,WUHU216HW,2013-06-23 21:27:00,
2013-06-23 22:32:00,54.4,49.6,29.85,NW,315,0.7,6.9,84,0.00,,,0.01,WUHU216HW,2013-06-23 21:32:00,
2013-06-23 22:37:00,54.5,49.8,29.85,West,270,1.6,3.1,84,0.00,,,0.01,WUHU216HW,2013-06-23 21:37:00,
2013-06-23 22:42:00,54.5,49.4,29.85,WSW,248,2.0,3.6,83,0.00,,,0.01,WUHU216HW,2013-06-23 21:42:00,
2013-06-23 22:47:00,54.5,49.4,29.85,West,270,1.3,3.8,83,0.00,,,0.01,WUHU216HW,2013-06-23 21:47:00,
2013-06-23 22:52:00,54.4,49.3,29.85,SW,225,1.1,3.8,83,0.00,,,0.01,WUHU216HW,2013-06-23 21:52:00,
2013-06-23 22:57:00,54.4,49.6,29.85,West,270,0.4,2.5,84,0.00,,,0.01,WUHU216HW,2013-06-23 21:57:00,
2013-06-23 23:02:00,54.2,49.2,29.86,NW,315,0.9,2.5,83,0.00,,,0.01,WUHU216HW,2013-06-23 22:02:00,
2013-06-23 23:07:00,54.2,49.2,29.86,West,270,1.6,2.5,83,0.00,,,0.01,WUHU216HW,2013-06-23 22:07:00,
2013-06-23 23:12:00,54.0,49.2,29.86,West,270,0.4,2.0,84,0.00,,,0.01,WUHU216HW,2013-06-23 22:12:00,
2013-06-23 23:17:00,54.0,49.2,29.86,WSW,248,0.7,2.0,84,0.00,,,0.01,WUHU216HW,2013-06-23 22:17:00,
2013-06-23 23:22:00,53.8,49.1,29.86,West,270,1.1,2.0,84,0.00,,,0.01,WUHU216HW,2013-06-23 22:22:00,
2013-06-23 23:27:00,53.8,49.4,29.86,West,270,0.4,2.5,85,0.00,,,0.01,WUHU216HW,2013-06-23 22:27:00,
2013-06-23 23:32:00,53.6,49.2,29.87,West,270,1.8,2.5,85,0.00,,,0.01,WUHU216HW,2013-06-23 22:32:00,
2013-06-23 23:37:00,53.6,49.2,29.87,NNW,338,0.7,1.8,85,0.00,,,0.01,WUHU216HW,2013-06-23 22:37:00,
2013-06-23 23:42:00,53.6,49.2,29.87,West,270,0.4,2.5,85,0.00,,,0.01,WUHU216HW,2013-06-23 22:42:00,
2013-06-23 23:47:00,53.6,49.2,29.87,NW,315,0.0,2.5,85,0.00,,,0.01,WUHU216HW,2013-06-23 22:47:00,
2013-06-23 23:52:00,53.6,49.5,29.87,WSW,248,0.4,1.3,86,0.00,,,0.01,WUHU216HW,2013-06-23 22:52:00,
2013-06-23 23:57:00,53.5,49.3,29.88,WNW,293,0.9,0.9,86,0.00,,,0.01,WUHU216HW,2013-06-23 22:57:00,